XNO56T EGSS-EDDH

Flight info

Callsign XNO56T
Flight time 1h 9m
Altitude 41000
Route CLN P44 SOMVA DCT MAVAS DCT VALAM DCT GASTU DCT OSTOR T904 RIBSO RIBSO3S
Aircraft A35K/H-SDE2E3GHIJ3J4J5LM1ORWXY/LB1D1

Departure

Time 2026-05-05 09:11
Airport London Stansted Airport (EGSS)

Arrival

Time 2026-05-05 10:21
Airport Hamburg Helmut Schmidt Airport (EDDH)
Time Latitude Longitude Altitude Speed Heading
2026-05-05 08:11 51.88799 0.25410 354 ft 0 kts 43°
2026-05-05 08:14 51.88808 0.25425 352 ft 0 kts 43°
2026-05-05 09:00 51.88793 0.25404 356 ft 4 kts 34°
2026-05-05 09:00 51.88776 0.25384 351 ft 4 kts 29°
2026-05-05 09:00 51.88752 0.25372 351 ft 4 kts 352°
2026-05-05 09:01 51.88729 0.25388 336 ft 4 kts 317°
2026-05-05 09:01 51.88715 0.25410 335 ft 0 kts 313°
2026-05-05 09:03 51.88726 0.25391 335 ft 4 kts 312°
2026-05-05 09:03 51.88751 0.25346 336 ft 7 kts 312°
2026-05-05 09:03 51.88790 0.25276 336 ft 10 kts 313°
2026-05-05 09:04 51.88843 0.25185 353 ft 12 kts 313°
2026-05-05 09:04 51.88905 0.25078 352 ft 14 kts 313°
2026-05-05 09:04 51.88938 0.24962 359 ft 10 kts 263°
2026-05-05 09:04 51.88892 0.24858 359 ft 13 kts 226°
2026-05-05 09:05 51.88820 0.24741 359 ft 16 kts 223°
2026-05-05 09:05 51.88727 0.24606 360 ft 20 kts 223°
2026-05-05 09:05 51.88619 0.24443 359 ft 23 kts 223°
2026-05-05 09:05 51.88493 0.24255 357 ft 26 kts 223°
2026-05-05 09:06 51.88453 0.24070 355 ft 18 kts 293°
2026-05-05 09:06 51.88444 0.23882 357 ft 19 kts 228°
2026-05-05 09:06 51.88335 0.23718 356 ft 23 kts 223°
2026-05-05 09:06 51.88208 0.23527 350 ft 27 kts 222°
2026-05-05 09:07 51.88064 0.23311 352 ft 30 kts 223°
2026-05-05 09:07 51.87951 0.23142 354 ft 21 kts 223°
2026-05-05 09:07 51.87844 0.22980 354 ft 21 kts 222°
2026-05-05 09:07 51.87727 0.22804 354 ft 24 kts 223°
2026-05-05 09:08 51.87598 0.22612 354 ft 22 kts 222°
2026-05-05 09:08 51.87515 0.22490 335 ft 17 kts 223°
2026-05-05 09:08 51.87428 0.22357 335 ft 10 kts 227°
2026-05-05 09:08 51.87403 0.22271 334 ft 10 kts 264°
2026-05-05 09:09 51.87433 0.22152 332 ft 14 kts 310°
2026-05-05 09:09 51.87485 0.22058 330 ft 8 kts 315°
2026-05-05 09:09 51.87537 0.22047 332 ft 9 kts 25°
2026-05-05 09:09 51.87587 0.22110 332 ft 7 kts 41°
2026-05-05 09:10 51.87609 0.22142 332 ft 0 kts 42°
2026-05-05 09:10 51.87648 0.22200 332 ft 37 kts 43°
2026-05-05 09:11 51.88035 0.22781 335 ft 113 kts 43°
2026-05-05 09:11 51.88768 0.23892 388 ft 171 kts 42°
2026-05-05 09:11 51.89602 0.25243 1314 ft 166 kts 44°
2026-05-05 09:11 51.90277 0.26831 2016 ft 184 kts 64°
2026-05-05 09:12 51.90488 0.29040 2448 ft 214 kts 92°
2026-05-05 09:12 51.90227 0.31504 3098 ft 233 kts 99°
2026-05-05 09:12 51.89877 0.34161 3671 ft 248 kts 100°
2026-05-05 09:12 51.89521 0.36928 3942 ft 252 kts 100°
2026-05-05 09:13 51.89147 0.39705 3995 ft 254 kts 103°
2026-05-05 09:13 51.88519 0.42345 4089 ft 256 kts 112°
2026-05-05 09:13 51.87745 0.44975 4660 ft 262 kts 114°
2026-05-05 09:13 51.86954 0.47634 5711 ft 262 kts 113°
2026-05-05 09:14 51.86166 0.50320 6660 ft 269 kts 114°
2026-05-05 09:14 51.85348 0.53093 7510 ft 278 kts 114°
2026-05-05 09:14 51.84539 0.55964 8517 ft 282 kts 111°
2026-05-05 09:14 51.83928 0.59001 9513 ft 287 kts 102°
2026-05-05 09:15 51.83616 0.62221 10406 ft 296 kts 95°
2026-05-05 09:15 51.83461 0.65673 10849 ft 321 kts 92°
2026-05-05 09:15 51.83327 0.69423 11267 ft 346 kts 92°
2026-05-05 09:15 51.83304 0.73422 11839 ft 362 kts 87°
2026-05-05 09:16 51.83451 0.77517 12764 ft 368 kts 86°
2026-05-05 09:16 51.83621 0.81667 13703 ft 373 kts 86°
2026-05-05 09:16 51.83790 0.85883 14543 ft 378 kts 86°
2026-05-05 09:16 51.83954 0.90171 15340 ft 384 kts 86°
2026-05-05 09:17 51.84116 0.94504 16263 ft 385 kts 87°
2026-05-05 09:17 51.84275 0.98825 17284 ft 386 kts 87°
2026-05-05 09:17 51.84435 1.03183 18158 ft 391 kts 87°
2026-05-05 09:17 51.84594 1.07602 18886 ft 397 kts 88°
2026-05-05 09:18 51.84798 1.12085 19657 ft 402 kts 84°
2026-05-05 09:18 51.85392 1.16531 20466 ft 408 kts 73°
2026-05-05 09:18 51.86353 1.20889 21236 ft 414 kts 69°
2026-05-05 09:18 51.87474 1.25205 22005 ft 419 kts 67°
2026-05-05 09:19 51.88675 1.29531 22779 ft 424 kts 67°
2026-05-05 09:19 51.89911 1.33911 23501 ft 430 kts 67°
2026-05-05 09:19 51.91152 1.38348 24134 ft 436 kts 67°
2026-05-05 09:19 51.92395 1.42860 24717 ft 441 kts 68°
2026-05-05 09:20 51.93638 1.47441 25322 ft 447 kts 68°
2026-05-05 09:20 51.94883 1.52085 25918 ft 452 kts 68°
2026-05-05 09:20 51.96120 1.56730 26498 ft 457 kts 68°
2026-05-05 09:20 51.97382 1.61492 27110 ft 462 kts 68°
2026-05-05 09:21 51.98667 1.66299 27708 ft 467 kts 66°
2026-05-05 09:21 52.00131 1.71025 28294 ft 472 kts 63°
2026-05-05 09:21 52.01669 1.75767 28869 ft 477 kts 62°
2026-05-05 09:21 52.03247 1.80544 29507 ft 480 kts 62°
2026-05-05 09:22 52.04834 1.85304 30278 ft 478 kts 61°
2026-05-05 09:22 52.06415 1.90041 31009 ft 475 kts 61°
2026-05-05 09:22 52.07981 1.94739 31836 ft 470 kts 62°
2026-05-05 09:22 52.09524 1.99383 32627 ft 465 kts 62°
2026-05-05 09:23 52.11054 2.04006 33273 ft 463 kts 62°
2026-05-05 09:23 52.12573 2.08612 33910 ft 461 kts 62°
2026-05-05 09:23 52.14079 2.13191 34446 ft 458 kts 63°
2026-05-05 09:23 52.15581 2.17764 34874 ft 458 kts 63°
2026-05-05 09:24 52.17081 2.22344 35278 ft 459 kts 63°
2026-05-05 09:24 52.18582 2.26932 35685 ft 459 kts 63°
2026-05-05 09:24 52.20079 2.31516 36075 ft 459 kts 63°
2026-05-05 09:24 52.21578 2.36117 36447 ft 459 kts 63°
2026-05-05 09:25 52.23075 2.40719 36806 ft 459 kts 63°
2026-05-05 09:25 52.24566 2.45310 37363 ft 453 kts 63°
2026-05-05 09:25 52.26017 2.49787 38250 ft 440 kts 62°
2026-05-05 09:25 52.27440 2.54183 38769 ft 435 kts 62°
2026-05-05 09:26 52.28852 2.58556 38980 ft 435 kts 62°
2026-05-05 09:26 52.30190 2.62990 39157 ft 435 kts 68°
2026-05-05 09:26 52.31239 2.67624 39333 ft 435 kts 73°
2026-05-05 09:26 52.32148 2.72329 39513 ft 435 kts 74°
2026-05-05 09:27 52.33011 2.77069 39696 ft 435 kts 75°
2026-05-05 09:27 52.33845 2.81811 39860 ft 435 kts 75°
2026-05-05 09:27 52.34670 2.86571 40031 ft 435 kts 75°
2026-05-05 09:27 52.35491 2.91328 40189 ft 435 kts 75°
2026-05-05 09:28 52.36312 2.96087 40349 ft 435 kts 75°
2026-05-05 09:28 52.37135 3.00848 40471 ft 435 kts 75°
2026-05-05 09:28 52.37960 3.05613 40590 ft 436 kts 75°
2026-05-05 09:28 52.38774 3.10322 40725 ft 436 kts 75°
2026-05-05 09:29 52.39655 3.15057 40853 ft 436 kts 70°
2026-05-05 09:29 52.40817 3.19653 40962 ft 437 kts 66°
2026-05-05 09:29 52.42097 3.24194 40986 ft 440 kts 65°
2026-05-05 09:30 52.44783 3.33311 40983 ft 448 kts 64°
2026-05-05 09:30 52.47547 3.42570 40992 ft 456 kts 64°
2026-05-05 09:31 52.50323 3.51935 40980 ft 457 kts 64°
2026-05-05 09:31 52.53086 3.61335 40980 ft 457 kts 64°
2026-05-05 09:32 52.55374 3.69160 40980 ft 457 kts 64°
2026-05-05 09:32 52.58121 3.78590 40979 ft 457 kts 64°
2026-05-05 09:33 52.60857 3.88017 40977 ft 457 kts 64°
2026-05-05 09:33 52.63590 3.97467 40977 ft 457 kts 65°
2026-05-05 09:34 52.66313 4.06924 40970 ft 457 kts 65°
2026-05-05 09:34 52.69030 4.16400 40970 ft 457 kts 65°
2026-05-05 09:35 52.71741 4.25889 40967 ft 458 kts 65°
2026-05-05 09:35 52.75794 4.40150 40962 ft 457 kts 65°
2026-05-05 09:36 52.78487 4.49673 40971 ft 458 kts 65°
2026-05-05 09:36 52.81185 4.59254 40971 ft 461 kts 65°
2026-05-05 09:37 52.83869 4.68822 40968 ft 462 kts 65°
2026-05-05 09:37 52.86561 4.78461 40968 ft 462 kts 65°
2026-05-05 09:38 52.89249 4.88123 40965 ft 462 kts 65°
2026-05-05 09:38 52.91926 4.97788 40969 ft 462 kts 65°
2026-05-05 09:39 52.94600 5.07483 40959 ft 462 kts 65°
2026-05-05 09:39 52.97266 5.17188 40973 ft 462 kts 65°
2026-05-05 09:40 52.99926 5.26910 40976 ft 462 kts 65°
2026-05-05 09:40 53.02577 5.36644 40972 ft 462 kts 65°
2026-05-05 09:41 53.05152 5.46488 40976 ft 469 kts 68°
2026-05-05 09:41 53.07559 5.56581 40975 ft 474 kts 69°
2026-05-05 09:42 53.09973 5.66787 40967 ft 474 kts 68°
2026-05-05 09:42 53.12410 5.76997 40968 ft 474 kts 68°
2026-05-05 09:43 53.14854 5.87207 40966 ft 475 kts 68°
2026-05-05 09:43 53.17296 5.97441 40967 ft 475 kts 68°
2026-05-05 09:44 53.19729 6.07694 40969 ft 475 kts 68°
2026-05-05 09:44 53.22149 6.17946 40968 ft 475 kts 69°
2026-05-05 09:45 53.24563 6.28219 40967 ft 475 kts 69°
2026-05-05 09:45 53.26967 6.38502 40964 ft 475 kts 69°
2026-05-05 09:46 53.29364 6.48801 40966 ft 475 kts 69°
2026-05-05 09:46 53.31750 6.59105 40958 ft 476 kts 69°
2026-05-05 09:47 53.32944 6.64280 40501 ft 477 kts 69°
2026-05-05 09:47 53.34138 6.69467 39851 ft 479 kts 69°
2026-05-05 09:47 53.35333 6.74671 39323 ft 478 kts 69°
2026-05-05 09:47 53.36524 6.79871 38802 ft 477 kts 69°
2026-05-05 09:48 53.37710 6.85060 38161 ft 477 kts 69°
2026-05-05 09:48 53.38895 6.90260 37412 ft 479 kts 69°
2026-05-05 09:48 53.40084 6.95489 36653 ft 481 kts 69°
2026-05-05 09:48 53.41276 7.00741 35907 ft 484 kts 70°
2026-05-05 09:49 53.42475 7.06045 35155 ft 488 kts 70°
2026-05-05 09:49 53.43680 7.11382 34430 ft 491 kts 70°
2026-05-05 09:49 53.44887 7.16746 33686 ft 493 kts 70°
2026-05-05 09:49 53.46098 7.22140 32924 ft 494 kts 70°
2026-05-05 09:50 53.47305 7.27533 32221 ft 494 kts 70°
2026-05-05 09:50 53.48514 7.32945 31447 ft 496 kts 70°
2026-05-05 09:50 53.49719 7.38356 30797 ft 495 kts 70°
2026-05-05 09:50 53.50922 7.43769 30170 ft 494 kts 70°
2026-05-05 09:51 53.52117 7.49162 29669 ft 488 kts 70°
2026-05-05 09:51 53.53289 7.54463 29172 ft 482 kts 70°
2026-05-05 09:51 53.54450 7.59732 28515 ft 479 kts 69°
2026-05-05 09:51 53.55603 7.64972 27898 ft 476 kts 69°
2026-05-05 09:52 53.56744 7.70176 27440 ft 472 kts 69°
2026-05-05 09:52 53.57878 7.75358 27174 ft 472 kts 69°
2026-05-05 09:52 53.59009 7.80541 26905 ft 471 kts 70°
2026-05-05 09:52 53.60125 7.85667 26692 ft 462 kts 70°
2026-05-05 09:53 53.61214 7.90684 26486 ft 450 kts 70°
2026-05-05 09:53 53.62275 7.95583 26257 ft 440 kts 70°
2026-05-05 09:53 53.63312 8.00382 26006 ft 431 kts 70°
2026-05-05 09:53 53.64309 8.05112 25767 ft 427 kts 71°
2026-05-05 09:54 53.65228 8.09832 25541 ft 421 kts 72°
2026-05-05 09:54 53.66097 8.14485 25255 ft 414 kts 72°
2026-05-05 09:54 53.66940 8.19054 24749 ft 413 kts 72°
2026-05-05 09:54 53.67794 8.23666 24282 ft 412 kts 72°
2026-05-05 09:55 53.68651 8.28266 23848 ft 410 kts 72°
2026-05-05 09:55 53.69509 8.32840 23395 ft 408 kts 72°
2026-05-05 09:55 53.70364 8.37382 22923 ft 405 kts 72°
2026-05-05 09:55 53.71213 8.41890 22423 ft 402 kts 72°
2026-05-05 09:56 53.72059 8.46382 21960 ft 400 kts 72°
2026-05-05 09:56 53.72892 8.50816 21348 ft 391 kts 72°
2026-05-05 09:56 53.73705 8.55152 20648 ft 384 kts 72°
2026-05-05 09:56 53.74505 8.59435 20119 ft 381 kts 72°
2026-05-05 09:57 53.75298 8.63693 19612 ft 378 kts 72°
2026-05-05 09:57 53.76081 8.67899 19121 ft 374 kts 72°
2026-05-05 09:57 53.76854 8.72070 18614 ft 370 kts 72°
2026-05-05 09:57 53.77620 8.76210 18111 ft 367 kts 72°
2026-05-05 09:58 53.78378 8.80314 17599 ft 362 kts 72°
2026-05-05 09:58 53.79122 8.84349 17095 ft 358 kts 72°
2026-05-05 09:58 53.79860 8.88365 16594 ft 356 kts 72°
2026-05-05 09:58 53.80566 8.92213 16112 ft 352 kts 72°
2026-05-05 09:59 53.81191 8.95625 15689 ft 349 kts 72°
2026-05-05 09:59 53.81905 8.99530 15202 ft 345 kts 72°
2026-05-05 09:59 53.82509 9.03462 14773 ft 346 kts 80°
2026-05-05 09:59 53.82690 9.07446 14329 ft 343 kts 91°
2026-05-05 10:00 53.82556 9.11463 13895 ft 341 kts 95°
2026-05-05 10:00 53.82349 9.15444 13424 ft 339 kts 96°
2026-05-05 10:00 53.82129 9.19399 12951 ft 336 kts 96°
2026-05-05 10:00 53.81907 9.23314 12497 ft 332 kts 96°
2026-05-05 10:01 53.81695 9.27188 12098 ft 328 kts 96°
2026-05-05 10:01 53.81491 9.30996 11723 ft 323 kts 96°
2026-05-05 10:01 53.81335 9.34763 11289 ft 320 kts 91°
2026-05-05 10:01 53.81780 9.38420 10824 ft 319 kts 66°
2026-05-05 10:02 53.82987 9.41536 10400 ft 316 kts 49°
2026-05-05 10:02 53.84467 9.44275 9962 ft 315 kts 46°
2026-05-05 10:02 53.85978 9.46933 9546 ft 307 kts 46°
2026-05-05 10:02 53.87402 9.49455 9268 ft 286 kts 47°
2026-05-05 10:03 53.88416 9.52223 8828 ft 272 kts 72°
2026-05-05 10:03 53.88594 9.55306 8449 ft 260 kts 98°
2026-05-05 10:03 53.88252 9.58302 8138 ft 258 kts 110°
2026-05-05 10:03 53.87393 9.60915 7819 ft 252 kts 136°
2026-05-05 10:04 53.85964 9.62488 7514 ft 243 kts 167°
2026-05-05 10:04 53.84318 9.62576 7212 ft 237 kts 198°
2026-05-05 10:04 53.82910 9.61192 7100 ft 235 kts 220°
2026-05-05 10:04 53.81650 9.59408 7006 ft 237 kts 221°
2026-05-05 10:05 53.80390 9.57621 6900 ft 236 kts 220°
2026-05-05 10:05 53.78977 9.56185 6878 ft 239 kts 203°
2026-05-05 10:05 53.77370 9.55486 6727 ft 239 kts 191°
2026-05-05 10:05 53.75720 9.55123 6496 ft 239 kts 188°
2026-05-05 10:06 53.74089 9.54838 6245 ft 239 kts 188°
2026-05-05 10:06 53.72414 9.54559 6072 ft 238 kts 188°
2026-05-05 10:06 53.70762 9.54286 5929 ft 239 kts 188°
2026-05-05 10:06 53.69113 9.54018 5789 ft 238 kts 187°
2026-05-05 10:07 53.67486 9.53753 5675 ft 238 kts 187°
2026-05-05 10:07 53.65839 9.53489 5582 ft 237 kts 188°
2026-05-05 10:07 53.64191 9.53222 5576 ft 238 kts 187°
2026-05-05 10:07 53.62546 9.52957 5571 ft 238 kts 187°
2026-05-05 10:08 53.60897 9.52691 5568 ft 238 kts 186°
2026-05-05 10:08 53.59245 9.52426 5565 ft 239 kts 186°
2026-05-05 10:08 53.57594 9.52163 5563 ft 239 kts 187°
2026-05-05 10:08 53.55943 9.51899 5564 ft 239 kts 187°
2026-05-05 10:09 53.54288 9.51634 5555 ft 239 kts 187°
2026-05-05 10:09 53.52630 9.51370 5550 ft 239 kts 187°
2026-05-05 10:09 53.50998 9.50896 5546 ft 237 kts 199°
2026-05-05 10:09 53.49548 9.49652 5544 ft 234 kts 220°
2026-05-05 10:10 53.48401 9.47724 5562 ft 234 kts 230°
2026-05-05 10:10 53.47344 9.45644 5548 ft 234 kts 231°
2026-05-05 10:10 53.46295 9.43544 5562 ft 235 kts 231°
2026-05-05 10:10 53.45246 9.41443 5563 ft 235 kts 231°
2026-05-05 10:11 53.44190 9.39363 5543 ft 234 kts 229°
2026-05-05 10:11 53.42940 9.37608 5504 ft 236 kts 212°
2026-05-05 10:11 53.41388 9.36696 5321 ft 238 kts 189°
2026-05-05 10:11 53.39753 9.36855 5071 ft 236 kts 166°
2026-05-05 10:12 53.38286 9.38046 4912 ft 236 kts 144°
2026-05-05 10:12 53.37073 9.39865 4779 ft 238 kts 135°
2026-05-05 10:12 53.36138 9.42126 4638 ft 237 kts 112°
2026-05-05 10:12 53.35932 9.44917 4546 ft 258 kts 81°
2026-05-05 10:13 53.36695 9.47665 4463 ft 267 kts 47°
2026-05-05 10:13 53.38103 9.49689 4420 ft 267 kts 37°
2026-05-05 10:13 53.39472 9.51649 4409 ft 250 kts 42°
2026-05-05 10:13 53.40634 9.53696 4413 ft 237 kts 48°
2026-05-05 10:14 53.41686 9.55811 4418 ft 236 kts 49°
2026-05-05 10:14 53.42730 9.57938 4419 ft 236 kts 49°
2026-05-05 10:14 53.43783 9.60051 4424 ft 236 kts 49°
2026-05-05 10:14 53.44841 9.62163 4423 ft 236 kts 49°
2026-05-05 10:15 53.45895 9.64276 4422 ft 234 kts 49°
2026-05-05 10:15 53.46900 9.66297 4421 ft 217 kts 49°
2026-05-05 10:15 53.47845 9.68196 4422 ft 210 kts 49°
2026-05-05 10:15 53.48778 9.70070 4257 ft 208 kts 49°
2026-05-05 10:16 53.49700 9.71924 3979 ft 205 kts 49°
2026-05-05 10:16 53.50606 9.73747 3667 ft 201 kts 49°
2026-05-05 10:16 53.51498 9.75541 3346 ft 199 kts 50°
2026-05-05 10:16 53.52376 9.77308 3037 ft 195 kts 50°
2026-05-05 10:17 53.53226 9.79021 2803 ft 185 kts 50°
2026-05-05 10:17 53.54016 9.80612 2547 ft 170 kts 50°
2026-05-05 10:17 53.54748 9.82088 2322 ft 161 kts 50°
2026-05-05 10:17 53.55455 9.83514 2111 ft 156 kts 51°
2026-05-05 10:18 53.56145 9.84906 1898 ft 154 kts 51°
2026-05-05 10:18 53.56827 9.86281 1687 ft 152 kts 51°
2026-05-05 10:18 53.57501 9.87644 1473 ft 151 kts 51°
2026-05-05 10:18 53.58177 9.89007 1263 ft 152 kts 51°
2026-05-05 10:19 53.58849 9.90366 1040 ft 151 kts 49°
2026-05-05 10:19 53.59514 9.91707 830 ft 151 kts 49°
2026-05-05 10:19 53.60190 9.93073 642 ft 152 kts 50°
2026-05-05 10:19 53.60648 9.94000 482 ft 153 kts 50°
2026-05-05 10:20 53.61533 9.95789 230 ft 144 kts 51°
2026-05-05 10:20 53.62154 9.97046 53 ft 134 kts 50°
2026-05-05 10:20 53.62682 9.98106 50 ft 97 kts 50°
2026-05-05 10:20 53.62932 9.98609 49 ft 68 kts 50°
2026-05-05 10:21 53.63085 9.98984 50 ft 27 kts 77°
2026-05-05 10:21 53.63091 9.99155 55 ft 5 kts 93°
2026-05-05 10:21 53.63091 9.99164 54 ft 1 kts 93°
2026-05-05 10:21 53.63089 9.99205 52 ft 6 kts 94°
2026-05-05 10:22 53.63086 9.99304 51 ft 11 kts 89°
2026-05-05 10:22 53.63117 9.99442 48 ft 15 kts 56°
2026-05-05 10:22 53.63169 9.99560 51 ft 11 kts 53°
2026-05-05 10:22 53.63214 9.99669 50 ft 11 kts 66°
2026-05-05 10:23 53.63189 9.99784 50 ft 12 kts 141°
2026-05-05 10:23 53.63119 9.99852 52 ft 8 kts 152°
2026-05-05 10:23 53.63064 9.99901 50 ft 11 kts 152°
2026-05-05 10:23 53.62986 9.99968 50 ft 11 kts 151°
2026-05-05 10:24 53.62957 10.00064 51 ft 9 kts 81°
2026-05-05 10:24 53.63002 10.00145 48 ft 10 kts 33°
2026-05-05 10:24 53.63036 10.00182 48 ft 1 kts 32°
2026-05-05 10:24 53.63046 10.00203 50 ft 3 kts 62°
2026-05-05 10:25 53.63045 10.00244 51 ft 4 kts 104°
2026-05-05 10:25 53.63031 10.00291 48 ft 5 kts 119°
2026-05-05 10:25 53.63020 10.00324 50 ft 1 kts 121°
2026-05-05 10:25 53.63016 10.00334 51 ft 0 kts 121°